User: anonymous   Login
Location: Unspecified
(49.8670°N, 0.0000°E)
Time: 19:15:26
(UTC+00:00)
Language:

Vanguard 2 Rocket - Orbit

View from above orbital plane
View from above orbital plane
View from above satellite
View from above satellite

Ground track
Ground track

The orbit data is extracted from the following two-line orbital elements,

1    12U 59001B   19175.06968868  .00000062  00000-0  31904-4 0  9991
2    12  32.8995 168.3458 1665817 346.5270   9.5578 11.44264864481374
Epoch (UTC): 24 June 2019 01:40:21
Eccentricity: 0.1665817
inclination: 32.8995°
perigee height: 555 km
apogee height: 3326 km
right ascension of ascending node: 168.3458°
argument of perigee: 346.5270°
revolutions per day: 11.44264864
mean anomaly at epoch: 9.5578°
orbit number at epoch: 48137

The dashed part of the orbit path shows where the satellite is in the earth's shadow,  

DLR